Location: Four Corners
(38.2757°N, 122.4608°W)
Time: 06:50:36
(UTC+00:00)

Cosmos 2237 Rocket - Pass Details

Date: 08 December 2019
Orbit: 836 x 849 km, 71.0° (Epoch: 23 January)

Event Time Altitude Azimuth Distance (km) Brightness Sun altitude
Rises 02:42:02 0° 223° (SW) 3,398 6.2 -21.5°
Reaches altitude 10° 02:44:39 10° 231° (SW) 2,467 5.5 -22.0°
Maximum altitude 02:49:54 38° 299° (WNW) 1,272 3.5 -23.0°
Enters shadow 02:54:54 11° 6° (N) 2,384 4.4 -24.0°
